This demonstration page uses our WeatherBlox Daily Observations layout. Learn more.

Left ArrowRight Arrow

Hourly Observations for July 28, 2017

Temp ( °F °C ) Dew Point ( °F °C ) Humidity (%) Winds ( mph kmh ) Pressure ( in mb ) Visibility ( mi km ) Precip ( " mm )
12:17 am 00:17 Cloudy 75 23.9 75 23.9 100 100 N N/A 29.88 1012 7 11 N/A
12:53 am 00:53 Mostly Cloudy 74 23.3 74 23.3 100 100 N N/A 29.85 1011 7 11 N/A
1:53 am 01:53 Cloudy with Mist and Fog 74 23.3 74 23.3 100 100 N N/A 29.85 1011 6 10 N/A
2:53 am 02:53 Cloudy with Mist and Fog 74 23.3 74 23.3 100 100 N N/A 29.84 1011 6 10 N/A
3:44 am 03:44 Cloudy 74 23.3 74 23.3 100 100 N N/A 29.85 1011 8 13 N/A
3:53 am 03:53 Cloudy 74 23.3 74 23.3 100 100 N N/A 29.83 1010 8 13 N/A
4:36 am 04:36 Cloudy 74 23.3 74 23.3 100 100 N N/A 29.85 1011 7 11 N/A
4:53 am 04:53 Cloudy 74 23.3 74 23.3 100 100 NE 3 6 29.83 1010 8 13 N/A
5:53 am 05:53 Cloudy 73 22.8 72 22.2 96 96 E 5 7 29.83 1010 10 16 N/A
6:53 am 06:53 Cloudy 73 22.8 71 21.7 94 94 NE 3 6 29.85 1011 10 16 N/A
7:06 am 07:06 Cloudy 73 22.8 71 21.7 94 94 E 6 9 29.85 1011 10 16 N/A
7:31 am 07:31 Cloudy 73 22.8 71 21.7 94 94 ENE 6 9 29.85 1011 10 16 N/A
7:53 am 07:53 Cloudy 73 22.8 71 21.7 94 94 NE 7 11 29.84 1010 10 16 N/A
8:53 am 08:53 Cloudy with Light Rain 73 22.8 71 21.7 94 94 E 6 9 29.85 1011 5 8 0.01 0.25
9:53 am 09:53 Mostly Cloudy 74 23.3 71 21.7 91 91 ENE 5 7 29.85 1011 9 14 N/A
10:18 am 10:18 Cloudy 75 23.9 71 21.7 88 88 ENE 7 11 29.85 1011 9 14 N/A
10:53 am 10:53 Cloudy 76 24.4 71 21.7 85 85 N 7 11 29.85 1011 8 13 N/A
11:23 am 11:23 Mostly Cloudy 77 25 71 21.7 82 82 N 8 13 29.88 1012 8 13 N/A
11:53 am 11:53 Mostly Cloudy 78 25.6 71 21.7 79 79 NNE 8 13 29.85 1011 10 16 N/A
12:53 pm 12:53 Partly Cloudy 81 27.2 71 21.7 72 72 NE 9 15 29.83 1010 10 16 N/A
1:53 pm 13:53 Mostly Cloudy 81 27.2 66 18.9 61 61 NNE 13 20 29.84 1011 10 16 N/A
2:53 pm 14:53 Mostly Sunny 83 28.3 70 21.1 65 65 N 10 17 29.83 1010 10 16 N/A
3:53 pm 15:53 Mostly Sunny 83 28.3 68 20 61 61 N 8 13 29.82 1010 10 16 N/A
4:53 pm 16:53 Sunny 84 28.9 66 18.9 55 55 NNW 10 17 29.81 1010 10 16 N/A
5:53 pm 17:53 Sunny 82 27.8 67 19.4 60 60 N 14 22 29.81 1010 10 16 N/A
6:53 pm 18:53 Sunny 80 26.7 66 18.9 62 62 N 8 13 29.82 1010 10 16 N/A
7:53 pm 19:53 Sunny 78 25.6 66 18.9 67 67 N 9 15 29.84 1010 10 16 N/A
8:53 pm 20:53 Sunny 75 23.9 66 18.9 74 74 N 8 13 29.85 1011 10 16 N/A
9:53 pm 21:53 Clear 73 22.8 64 17.8 74 74 NNE 12 19 29.88 1012 10 16 N/A
10:53 pm 22:53 Clear 71 21.7 63 17.2 76 76 NNE 8 13 29.89 1012 10 16 N/A
11:53 pm 23:53 Clear 69 20.6 63 17.2 81 81 N 6 9 29.91 1013 10 16 N/A

Powered by AerisWeather